{"data":{"norad_id":81845,"epoch":"2026-05-24T00:17:18.974688Z","epoch_age_seconds":160511,"freshness":"FRESH","line1":"1 81845U          26144.01202517  .00001988  00000+0  21796-3 0  9994","line2":"2 81845  97.6777 330.3205 0087493 130.0862  21.1524 14.86069331673617","mean_motion":14.86069331,"eccentricity":0.0087493,"inclination_deg":97.6777,"raan_deg":330.3205,"arg_perigee_deg":130.0862,"mean_anomaly_deg":21.1524,"bstar":0.00021796,"rev_number":67361,"period_min":96.899920478878,"perigee_km":549.08810720032,"apogee_km":671.37477117025,"semimajor_km":6988.3684391853,"source":"CELESTRAK","updated_at":"2026-05-25T13:38:11.086483Z"}}